Change the Weather History Date:

Monday, April 22, 2013

  Actual Average Record
Temperature  
Mean Temperature 54 °F 56 °F  
Max Temperature 68 °F 67 °F 89 °F (1925)
Min Temperature 39 °F 45 °F 30 °F (1959)
Degree Days  
Heating Degree Days 11 10  
Month to date heating degree days 321 297  
Since 1 July heating degree days 5138 5279  
Cooling Degree Days 0 1  
Month to date cooling degree days 7 11  
Year to date cooling degree days 7 13  
Growing Degree Days 4 (Base 50)    
Moisture  
Dew Point 40 °F    
Average Humidity 61    
Maximum Humidity 82    
Minimum Humidity 40    
Precipitation  
Precipitation T in 0.12 in 1.94 in (1944)
Month to date precipitation 4.36 2.47  
Year to date precipitation 13.41 8.73  
Snow  
Snow 0.00 in 0.00 in T in (1893)
Month to date snowfall T 0.3  
Since 1 July snowfall 33.1 20.9  
Snow Depth 0.00 in    
Sea Level Pressure  
Sea Level Pressure 30.16 in    
Wind  
Wind Speed 9 mph (SSE)    
Max Wind Speed 22 mph    
Max Gust Speed 28 mph    
Visibility 10 miles    
Events Rain    
T = Trace of Precipitation, MM = Missing Value Source: NWS Daily Summary

Daily Weather History Graph

Daily Weather History Graph

Search for Another Location

Airport or City:

Trip Planner

Search our weather history database for the weather conditions in past years. The results will help you decide how hot, cold, wet, or windy it might be!

Date:

Astronomy

Apr. 22, 2013 Rise Set
Actual Time 6:10 AM CDT 7:44 PM CDT
Civil Twilight 5:42 AM CDT 8:12 PM CDT
Nautical Twilight 5:07 AM CDT 8:47 PM CDT
Astronomical Twilight 4:31 AM CDT 9:24 PM CDT
Moon 4:33 PM CDT (4/22) 4:04 AM CDT (4/22)
Length of Visible Light 14h 30m
Length of Day
13h 33m
Waxing Gibbous, 88% of the Moon is Illuminated
Apr 22
Waxing Gibbous
Apr 25
Full
May 2
Last Quarter
May 9
New
May 17
First Quarter

Hourly Weather History & Observations

Time (CDT) Temp. Windchill Dew Point Humidity Pressure Visibility Wind Dir Wind Speed Gust Speed Precip Events Conditions
12:52 AM 45.0 °F 41.2 °F 37.0 °F 74% 30.30 in 10.0 mi ESE 6.9 mph - N/A   Clear
1:52 AM 43.0 °F 39.5 °F 37.0 °F 80% 30.28 in 10.0 mi SE 5.8 mph - N/A   Clear
2:52 AM 42.1 °F 37.7 °F 36.0 °F 79% 30.27 in 10.0 mi SE 6.9 mph - N/A   Clear
3:52 AM 41.0 °F 36.4 °F 35.1 °F 79% 30.26 in 10.0 mi ESE 6.9 mph - N/A   Clear
4:52 AM 41.0 °F 36.4 °F 35.1 °F 79% 30.26 in 10.0 mi ESE 6.9 mph - N/A   Clear
5:52 AM 39.9 °F 35.1 °F 34.0 °F 79% 30.25 in 10.0 mi SE 6.9 mph - N/A   Clear
6:52 AM 42.1 °F 37.7 °F 36.0 °F 79% 30.25 in 10.0 mi SE 6.9 mph - N/A   Clear
7:52 AM 48.9 °F - 37.0 °F 64% 30.25 in 10.0 mi SE 5.8 mph - N/A   Clear
8:52 AM 54.0 °F - 37.0 °F 53% 30.25 in 10.0 mi South 11.5 mph - N/A   Clear
10:52 AM 61.0 °F - 39.0 °F 44% 30.23 in 10.0 mi South 10.4 mph - N/A   Clear
11:52 AM 63.0 °F - 39.0 °F 41% 30.22 in 10.0 mi South 6.9 mph - N/A   Clear
12:52 PM 64.0 °F - 39.0 °F 40% 30.18 in 10.0 mi SSE 8.1 mph 16.1 mph N/A   Clear
1:52 PM 66.0 °F - 43.0 °F 43% 30.14 in 10.0 mi SE 8.1 mph 16.1 mph N/A   Clear
2:52 PM 66.9 °F - 43.0 °F 42% 30.12 in 10.0 mi SSE 12.7 mph - 0.00 in   Clear
3:52 PM 68.0 °F - 44.1 °F 42% 30.07 in 10.0 mi South 17.3 mph 25.3 mph 0.00 in   Clear
4:52 PM 66.9 °F - 42.1 °F 40% 30.04 in 10.0 mi SSE 11.5 mph 25.3 mph N/A   Clear
5:52 PM 66.0 °F - 43.0 °F 43% 30.04 in 10.0 mi SSE 17.3 mph - N/A   Clear
6:52 PM 64.0 °F - 44.1 °F 48% 30.03 in 10.0 mi SSE 9.2 mph - N/A   Clear
7:52 PM 60.1 °F - 45.0 °F 57% 30.03 in 10.0 mi SE 5.8 mph - N/A   Clear
8:52 PM 60.1 °F - 46.0 °F 60% 30.02 in 10.0 mi SE 10.4 mph - N/A   Clear
9:52 PM 57.9 °F - 46.0 °F 65% 30.04 in 10.0 mi SE 9.2 mph - N/A   Clear
10:52 PM 61.0 °F - 46.0 °F 58% 30.03 in 10.0 mi SSE 11.5 mph - N/A   Partly Cloudy
11:52 PM 60.1 °F - 46.9 °F 62% 30.05 in 10.0 mi SW 6.9 mph - 0.00 in Rain Light Rain